FENGYUN 1C DEB, 30967

Orbit data source: Space-Track

FENGYUN 1C DEB, 30967 is space debris in SSO originally from a launch on Mon, 10 May 1999 UTC launched from the Taiyaun Space Center, China (TSC). Fengyun 1C debris stems from the Chinese weather satellite Fengyun-1C, which was intentionally destroyed by a Chinese anti-satellite missile in 2007. This event dramatically increased the amount of space debris, with thousands of trackable fragments posing hazards to satellites and human spaceflight. The Fengyun 1C debris cloud has become a focal point in discussions about space sustainability and the need for international regulations to prevent the creation of new debris.

Loading next visibility...
Identifier
30967, 1999-025BBH
Orbit
SSO
Country
Flag of CNCN / PRC
Related business
Manufacturer
Unknown
Mission
Spacecraft
Bus & Motor
Unknown
Mass
Unknown
Launch date (UTC)
1999-05-10 (27 years ago)
Launch vehicle
Unknown
Launch site
Taiyaun Space Center, China (TSC)
Object type
Payload
Rocket body
Debris
Shape & HBR
Unknown shape, 0.1 m
Radar Cross Section
Small (<0.1 m²)

Expand to show TLE details & history
Last TLE update: 1 day ago

TLE from 1 day ago
0 FENGYUN 1C DEB
1 30967U 99025BBH 26206.85648458  .00002505  00000-0  51710-3 0  9993
2 30967  98.7856 170.4564 0091779 271.4885  87.5801 14.58801044 22867
Epoch: 2026-07-25T20:33Z
TLE epoch observation values (Epoch: 2026-07-25T20:33:20.267Z)
Latitude
-0.00001°
Longitude
-81.44081°
Altitude
697.866 km
Speed
7.508 km/s
True Right ascension
11h 21m 49s
True Declination
0° 00' 00"
Sunlit
Object was in daylight at epoch
Visualization orbit readout
Latitude
Unknown
Longitude
Unknown
Altitude
Unknown
Speed
Unknown
Apparent Right ascension
Unknown
Apparent Declination
Unknown
Sunlit
N/A
Visualization observer readout
Local Sidereal Time
20:03:25
Azimuth
Unknown
Elevation
Unknown
Doppler factor
Unknown
Orbital elements
Apogee altitude
759.067 km
Perigee altitude
629.249 km
Semi-major axis
7,072.295 km
Eccentricity
0.00918
Inclination
98.7856°
RAAN
170.4564°
Arg. of periapsis
271.4885°
True anomaly
88.63132°
Mean anomaly
87.5801°
Eccentric anomaly
88.10567°
Mean motion
3.64924 °/min
Orbital period
98.65 mins
BSTAR
0.0005171
Loading maneuver chart data...
Computing Atmospheric mass density...
Loading historical data...
Loading historical data...
Loading historical data...
Loading historical data...
Loading historical data...
Loading historical data...
Loading historical data...

Documentation

Showing up to 5 results
|